sat.trackr.live / text

‹ back to catalog

STARLINK-34220

NORAD 64930 · 2025-157AC

PAYLOAD ACTIVE UNKNOWN

§ Identity

Operator
Country
US
Launch date
2025-07-26
Launch site
AFETR
Launch vehicle
Mass (kg)
RCS (m²)

Purposes: comms

External: N2YO · Heavens-Above · Gunter

§ Orbital elements

Epoch: 2026-05-25T00:06:50.558976Z

Period
94.01 min
Inclination
53.1597°
Eccentricity
0.0000810
Mean motion
15.31711282 rev/d
Perigee alt
470.2 km
Apogee alt
471.3 km
Semi-major
6,848.8 km
B*
6.0730e-4
RAAN
350.7774°
Arg perigee
81.9870°
Mean anomaly
278.1223°
Rev number
4,770

§ Raw data

STARLINK-342201 64930U 25157AC  26145.00475184  .00018534  00000+0  60730-3 0  99982 64930  53.1597 350.7774 0000810  81.9870 278.1223 15.31711282 47703

JSON: /api/v1/satellites/64930 · /tle

For live sub-satellite position, see the globe view (requires WebGL).

§ Visibility from observer

Set your observer location to see the next 7 days of passes ≥ 10°. The values pass through the URL so the page stays shareable.

No JS? Fill the form by hand. The geolocation button needs JavaScript.